Back to catalog

STARLINK-37455

AliveCommunicationsSSO
NORAD 69299·PAYLOAD·🇺🇸 United States

Launched May 30, 2026 from Vandenberg Space Force Base

Loading…

Next Passes (next 24 hours)

TLE

FreshSource: CelesTrak SupGP

Epoch: Sep 14, 2026, 16:15 UTC

1 69299C 26119D   26257.67756944 -.00060789  00000+0 -18885-2 0  2574
2 69299  97.2827 282.4435 0001575 106.8817  33.6201 15.33445953    17

Track STARLINK-37455 in real time with AllMySat

Download on the App Store